Regional Weather Roundup
Issued by NWS

Home | Current Version | Previous Version | Text Only | Print | Product List | Glossary Off
Versions: 1 2 3 4 5 6 7 8 9 10 11 12 13 14 15 16 17 18 19 20 21 22 23 24 25 26 27 28 29 30 31 32 33 34 35 36 37 38 39 40 41 42 43 44 45 46 47 48 49 50

929
ASUS44 KLIX 270910
RWRLA
LOUISIANA WEATHER ROUNDUP
NATIONAL WEATHER SERVICE NEW ORLEANS LA
300 AM CST THU NOV 27 2014

NOTE: "FAIR" INDICATES FEW OR NO CLOUDS BELOW 12,000 FEET WITH NO
      SIGNIFICANT WEATHER AND/OR OBSTRUCTIONS TO VISIBILITY.
      SKY/WX - SKY CONDITION AND SIGNIFICANT WEATHER.
      TMP - AIR TEMPERATURE.    DP   - DEWPOINT TEMPERATURE.
      RH  - RELATIVE HUMIDITY.  PRES - PRESSURE.
      HX  - HEAT INDEX.         WCI  - WIND CHILL INDEX.

*  THESE STATIONS ARE NOT NWS OR FAA STATIONS AND ARE NOT UNDER
   NWS QUALITY CONTROL.

LAZ040-048-061>063-065-066-069-271000-
SOUTHEAST LOUISIANA

CITY           SKY/WX    TMP DP  RH WIND       PRES   REMARKS
N.O. AUDUBON     N/A     55  47  74 MISG        N/A
N.O. INTL ARPT CLEAR     51  45  79 NW7       30.32R
N.O. LAKEFRONT CLEAR     57  49  74 NW14      30.32R
N.O. DOWNTOWN* FAIR      55  45  67 NW6       30.32R
SLIDELL        CLEAR     49  44  83 CALM      30.31R
BATON ROUGE    CLEAR     43  40  89 W3        30.33R
BOOTHVILLE     CLEAR     57  50  77 W9        30.30R
BELLE CHASSE   CLEAR     55  46  71 NW5       30.31R
BOGALUSA*        N/A     47  40  76 N6        30.32R
NEW ROADS*     FAIR      45  40  82 W5        30.34R
GONZALES*      FAIR      51  46  84 NW5       30.33R
HAMMOND*       CLEAR     45  41  87 CALM      30.34R
HOUMA*         CLEAR     54  46  75 NW6       30.32R
PORT FOURCHON* SUNNY     59  54  82 W12       30.34R

$$

LAZ041-044-053-054-271000-
SOUTHWEST LOUISIANA

CITY           SKY/WX    TMP DP  RH WIND       PRES   REMARKS
LAKE CHARLES   CLEAR     44  41  89 N3        30.36R
LAFAYETTE      CLEAR     47  42  83 N5        30.35R
PATTERSON      CLEAR     54  45  71 NW7       30.35S
SALT POINT       N/A     59  47  64 CALM      30.33R
NEW IBERIA     CLEAR     47  43  86 N3        30.35R
CHENAULT AIRPK CLEAR     46  41  85 CALM      30.36R

$$

LAZ027-028-271000-
CENTRAL LOUISIANA

CITY           SKY/WX    TMP DP  RH WIND       PRES   REMARKS
FORT POLK      CLEAR     45  37  71 N6        30.35R
ALEXANDRIA INT CLEAR     45  37  73 NW7       30.34R
ALEXANDRIA     CLEAR     49  34  56 CALM      30.35R

$$

LAZ001-002-271000-
NORTHWEST LOUISIANA

CITY           SKY/WX    TMP DP  RH WIND       PRES   REMARKS
SHREVEPORT     CLEAR     46  31  55 NW10      30.40R
BARKSDALE AFB  CLEAR     43  31  62 NW8       30.40R
DTN SHREVEPORT CLEAR     45  29  53 NW8       30.41R

$$

LAZ014-016-271000-
NORTHEAST LOUISIANA

CITY           SKY/WX    TMP DP  RH WIND       PRES   REMARKS
MONROE         CLEAR     43  33  68 NW8       30.38R
TALLULAH       CLEAR     43  33  68 NW6       30.34R

$$




USA.gov is the U.S. government's official web portal to all federal, state and local government web resources and services.